Theta_e
316 314 316 319 322 320 322 319 322 324 323 323 323 326 327 327 328 331 327 335 338 338 339 340 338 337 340 339 336 335 334 332 330 328 324 320 316 314 313 313 312 313 316 324 329 331 333 336 335
315 315 317 319 320 321 319 319 320 325 325 325 325 326 326 327 327 331 332 334 337 338 339 340 338 339 337 336 336 333 330 327 323 318 314 311 309 308 308 308 308 309 313 320 322 323 326 329 332
315 315 317 318 317 318 318 318 323 322 322 325 326 326 325 326 326 328 333 335 338 338 338 338 337 336 335 334 333 327 323 319 315 311 307 306 305 306 306 306 308 313 318 319 320 320 321 322 325
314 316 315 316 317 317 318 320 320 323 324 324 325 325 325 325 326 326 332 337 338 338 336 335 335 334 333 331 326 321 317 312 308 305 304 305 306 307 307 308 313 317 318 318 318 319 319 320 320
314 316 315 315 316 317 317 318 318 322 325 325 325 324 325 324 323 326 333 336 338 336 334 334 333 332 329 326 322 316 311 307 305 304 305 306 307 306 307 312 315 315 315 316 317 318 318 318 318
314 314 313 314 315 315 315 316 316 318 323 323 323 324 325 322 325 327 332 336 336 335 334 333 331 328 326 321 316 311 307 305 305 305 305 305 305 304 307 311 312 313 314 315 315 315 316 316 317
317 313 313 314 314 315 316 316 315 318 320 322 322 323 323 322 324 328 332 335 335 334 333 330 328 325 321 316 312 307 306 305 305 305 305 304 304 305 307 309 309 312 313 313 312 312 313 313 314
317 316 314 313 314 315 318 318 317 318 320 316 320 321 323 323 325 328 331 333 333 331 330 328 326 322 319 314 309 307 306 305 305 305 305 305 306 311 312 311 312 310 312 312 312 312 312 311 311
317 315 315 315 315 316 318 319 317 317 319 318 319 320 319 320 324 327 329 330 329 327 326 325 323 320 317 315 310 306 306 306 306 308 309 310 312 313 313 312 310 308 308 308 309 312 312 311 310
314 315 315 316 316 317 318 318 318 317 318 319 319 319 318 319 323 326 327 327 327 325 324 323 320 317 315 311 310 311 310 310 310 311 312 312 313 313 311 312 311 311 311 311 311 311 311 312 313
314 317 316 315 316 316 317 317 317 318 319 320 319 320 319 319 320 323 324 325 325 324 323 321 318 315 314 311 311 311 310 310 311 312 312 313 313 313 312 311 312 312 312 312 312 313 314 314 314
316 314 314 316 315 315 316 316 317 316 318 318 317 317 317 319 319 320 321 323 324 323 322 320 317 315 313 312 310 311 310 311 312 312 312 313 313 312 311 310 311 312 311 312 313 314 314 314 315
316 316 315 315 314 314 314 314 316 317 317 317 317 315 316 317 318 319 319 320 321 322 321 320 317 314 313 311 311 310 311 311 312 312 313 312 312 312 312 311 311 312 311 312 313 315 317 318 318
316 316 316 315 315 315 315 316 316 318 318 318 316 318 318 318 318 318 318 319 320 320 319 319 317 314 312 311 310 311 311 311 312 313 313 312 312 312 311 311 311 311 312 312 315 317 317 316 317
316 316 317 317 317 317 316 319 318 319 318 318 319 319 318 318 318 317 318 319 319 319 318 318 316 314 311 310 310 311 311 311 313 313 312 312 312 311 311 311 311 311 312 314 316 316 314 315 315
316 316 317 318 317 316 316 321 321 318 319 321 321 321 321 321 320 319 318 317 318 319 318 317 314 312 310 310 310 311 311 312 312 312 312 312 311 310 310 311 311 311 313 314 315 316 314 315 315
318 319 317 319 317 318 317 323 321 318 320 321 322 321 320 319 317 314 313 314 315 317 317 316 312 311 310 310 311 311 311 312 312 313 312 311 310 310 310 311 311 314 315 315 316 314 315 316 315
319 317 318 320 320 319 321 321 321 321 321 320 319 318 317 316 314 312 311 311 313 315 316 314 311 310 310 311 311 311 312 313 313 312 311 310 309 309 310 311 314 314 314 315 315 315 316 316 315
316 318 318 319 317 319 321 321 320 320 317 317 316 316 315 315 313 311 310 311 313 314 314 312 311 310 311 311 312 312 313 313 313 310 309 309 309 309 310 314 314 314 314 315 316 315 316 316 317
316 319 320 318 316 316 319 320 320 317 314 312 314 314 313 312 312 310 310 311 312 312 312 311 311 311 311 311 311 312 313 313 312 309 309 309 309 310 310 314 315 314 315 316 316 316 317 318 316
314 316 319 316 316 317 319 325 319 316 313 311 311 311 311 311 310 310 309 310 311 311 311 310 310 310 310 310 311 312 313 313 312 311 310 309 309 310 311 314 315 315 316 316 316 315 317 318 316
313 314 315 315 316 322 319 341 326 319 316 312 310 310 310 310 309 308 308 309 310 310 310 310 310 310 310 310 312 313 314 314 312 311 310 310 309 311 312 313 314 316 314 315 316 314 315 317 317
314 314 315 316 318 321 322 329 329 316 318 312 310 308 307 307 308 307 308 308 309 310 310 310 310 309 310 310 311 313 313 312 311 310 311 310 310 311 312 314 313 314 314 313 314 316 316 315 314
314 316 317 318 320 328 325 326 335 317 310 310 308 306 305 305 306 307 307 308 309 309 309 309 309 309 309 310 310 311 312 312 311 312 312 312 312 312 312 314 314 314 314 314 314 316 316 316 314
315 317 326 327 327 326 314 319 320 309 307 306 305 305 303 303 304 305 306 307 307 307 308 308 308 308 308 308 309 310 310 310 310 312 312 313 313 313 314 314 313 314 314 314 314 315 316 317 315
316 318 326 329 327 323 313 320 317 306 304 304 303 302 302 301 301 300 300 301 302 303 304 306 307 307 307 307 308 309 309 309 310 310 311 312 313 313 314 314 313 313 313 314 314 314 316 317 316
316 317 314 314 312 316 317 313 307 306 304 303 302 301 300 299 298 298 297 297 297 298 299 300 301 303 304 305 306 307 308 309 309 310 309 310 311 312 312 313 315 314 313 314 314 315 315 315 315
314 314 317 318 322 319 314 313 316 308 306 303 301 300 299 298 297 297 296 295 295 295 296 296 297 298 299 299 302 305 307 308 308 309 309 309 310 311 311 313 314 314 313 312 313 314 314 315 315
313 314 313 314 315 312 310 312 307 306 303 302 299 298 297 297 296 296 295 294 293 293 293 293 294 294 295 298 299 302 304 306 306 308 308 309 309 311 311 312 313 314 314 313 313 314 314 315 314
311 311 313 311 314 312 312 313 304 302 300 300 298 297 296 295 295 294 293 293 292 292 292 292 291 292 292 294 296 297 299 302 304 305 306 307 308 309 310 311 312 313 314 314 313 313 314 315 315
Wind_Speed
5 5 4 5 4 4 9 3 2 4 3 2 2 3 6 7 6 3 3 5 10 15 15 15 12 11 14 12 10 6 6 4 2 2 3 4 6 7 9 10 12 14 14 13 12 13 12 13 13
3 3 4 2 6 7 6 4 5 4 3 3 3 2 3 4 4 6 7 6 13 14 14 13 14 15 11 8 9 6 4 3 3 3 5 7 8 8 9 11 11 13 12 12 13 14 14 13 14
2 5 4 4 6 8 1 4 4 3 2 4 2 3 3 3 6 4 5 12 16 14 14 13 15 12 9 8 8 6 5 4 4 5 6 7 8 9 10 11 12 12 11 12 13 13 14 14 13
5 5 4 6 9 8 3 4 3 4 3 3 4 3 3 5 3 4 9 13 15 14 13 14 14 11 10 8 7 5 4 4 5 5 7 8 8 10 12 13 12 11 12 13 14 14 14 14 13
6 3 7 7 9 3 5 3 3 2 2 5 5 3 2 4 5 7 11 13 15 13 12 14 14 11 9 8 7 5 5 5 5 6 7 8 10 11 12 11 11 11 12 13 13 13 14 14 15
5 3 5 10 9 3 3 2 3 7 4 4 4 3 4 5 5 7 10 12 13 13 12 11 13 11 8 7 6 5 5 5 6 7 8 9 10 11 11 10 10 10 11 12 13 14 14 15 15
9 6 8 7 6 4 3 1 4 4 4 4 2 2 4 6 5 8 11 12 13 12 12 11 11 10 9 8 7 6 5 6 6 7 9 11 13 13 12 11 10 10 12 13 13 14 15 16 16
5 4 8 7 5 5 4 3 1 5 3 1 3 1 4 6 7 10 11 12 12 12 12 11 11 10 8 7 8 6 5 5 6 8 11 12 13 12 10 12 7 12 12 13 14 15 15 16 18
3 5 9 11 9 2 4 3 3 2 6 3 3 1 5 10 9 10 11 12 13 12 13 12 11 10 8 7 5 6 6 6 7 8 11 10 8 8 8 11 14 13 13 15 15 15 15 17 17
8 7 9 2 5 3 2 3 1 2 5 6 7 6 6 8 9 11 13 14 15 15 15 13 12 10 9 6 5 4 4 3 5 5 7 7 8 7 12 10 14 12 13 14 12 13 14 14 12
5 5 5 3 4 3 5 5 2 5 8 10 7 5 8 8 10 12 13 13 15 14 14 14 12 11 10 7 5 4 3 4 5 6 7 6 7 7 8 9 9 9 10 10 10 11 12 15 15
5 11 7 2 2 3 5 6 7 8 14 9 7 8 5 9 10 11 12 12 12 15 15 14 13 12 10 7 5 4 3 4 6 6 7 6 6 7 8 8 8 8 8 9 10 13 12 11 10
14 8 5 9 4 6 7 11 13 15 15 14 10 8 10 11 10 11 10 10 12 14 15 15 14 12 10 8 5 4 3 5 7 7 6 6 6 6 7 7 7 7 7 8 11 12 10 10 10
2 10 10 5 7 6 6 12 2 10 3 4 2 7 7 7 7 8 9 11 14 14 15 15 15 13 10 7 5 3 2 5 7 7 6 6 5 6 7 7 7 7 6 8 11 10 10 11 8
4 7 9 9 5 3 3 9 12 16 4 6 4 5 4 7 6 7 8 10 13 15 15 16 14 13 10 7 4 2 2 4 6 6 6 6 6 6 6 6 6 6 7 9 9 8 8 8 7
5 6 7 6 3 2 3 7 7 2 1 5 7 5 4 5 5 8 9 9 9 12 15 15 14 13 10 7 4 1 2 4 5 6 6 6 6 5 4 4 4 6 7 6 7 7 8 10 8
5 5 9 5 3 2 7 4 5 2 9 11 10 8 7 7 9 13 12 10 9 10 13 15 14 13 11 8 5 1 1 2 3 6 6 6 5 4 3 3 4 6 5 5 7 6 8 7 10
6 5 5 5 3 3 6 12 12 10 11 8 7 7 8 10 11 13 12 8 4 9 12 14 13 13 10 7 4 2 1 2 3 4 5 5 4 3 3 3 4 2 3 4 6 5 9 9 9
2 4 5 2 3 4 7 10 13 11 7 9 10 11 12 13 14 16 14 9 6 9 12 14 14 13 9 6 3 0 1 2 4 3 3 3 2 2 3 4 5 2 2 3 4 5 6 9 11
5 3 3 1 0 3 8 12 3 8 9 12 13 14 15 15 15 16 15 11 10 11 11 12 13 12 8 5 3 2 1 1 2 2 2 1 1 2 3 4 3 3 3 2 6 3 4 5 12
9 9 3 4 4 6 8 7 9 9 12 14 15 15 16 16 15 14 14 13 13 13 12 12 10 9 6 5 3 2 2 1 1 2 1 2 1 1 3 3 3 3 3 2 1 3 6 8 7
11 9 11 8 3 5 2 2 2 7 8 15 15 15 15 17 15 13 14 15 14 13 13 12 10 8 6 4 4 3 4 5 3 2 1 1 1 1 2 3 3 1 1 1 3 6 5 7 7
3 4 9 8 9 6 6 3 3 3 2 12 15 15 16 16 15 13 14 15 15 13 12 11 10 9 8 6 5 5 5 4 3 2 2 1 2 1 1 2 1 1 2 3 3 6 5 3 5
10 7 6 3 3 4 4 4 5 2 4 9 12 14 15 15 14 15 15 15 16 14 14 13 12 11 10 9 8 7 7 6 5 4 3 2 2 2 2 1 2 1 3 3 4 4 5 4 4
7 9 2 4 4 4 2 4 5 4 7 8 10 12 13 14 14 14 15 16 17 17 16 14 13 13 11 11 10 9 8 7 5 5 6 5 3 3 3 3 4 4 4 4 5 5 4 4 5
13 9 4 5 4 3 2 6 3 7 6 7 9 10 12 14 13 13 16 17 17 17 17 15 14 13 12 12 10 9 8 7 7 6 5 6 6 5 5 5 6 6 6 6 5 6 6 5 5
6 6 3 4 1 1 5 4 6 7 8 9 11 11 12 13 13 14 17 18 18 18 18 17 15 13 13 13 11 10 9 8 7 7 6 6 7 8 8 7 8 8 8 7 7 7 7 7 6
2 3 3 2 3 5 4 3 2 8 6 8 10 11 11 11 13 13 17 18 18 18 17 17 17 16 15 14 13 11 10 9 8 8 8 8 10 10 10 9 9 9 9 12 9 9 9 10 8
4 3 3 2 2 2 2 3 5 8 6 7 9 10 11 12 12 12 16 17 18 19 19 19 20 19 19 17 16 14 12 11 11 10 10 9 9 11 10 10 11 10 9 9 11 12 10 10 10
4 8 10 4 5 2 2 2 4 8 7 7 8 8 10 11 11 14 16 17 19 20 21 21 21 22 21 19 17 16 16 15 13 13 12 12 11 10 13 12 12 12 12 13 14 14 12 12 12
Wind_Direction
254 284 269 247 230 238 246 231 25 175 206 168 276 266 3 354 355 10 142 136 137 147 153 157 166 165 162 169 189 198 203 194 182 242 284 301 301 303 302 299 296 296 298 302 314 311 305 317 303
244 260 245 246 251 220 209 184 192 160 67 190 166 214 249 77 68 96 132 147 145 147 149 155 169 167 174 193 214 207 199 217 242 273 298 305 311 308 311 309 309 308 312 316 318 313 310 290 304
219 228 242 226 234 245 297 182 143 128 184 184 197 288 6 55 73 67 96 143 148 149 150 163 172 179 193 202 199 196 211 239 275 294 304 309 309 316 316 315 313 316 324 320 317 311 309 306 298
206 202 233 244 222 241 306 126 86 186 186 203 288 201 131 50 51 65 142 146 151 152 153 166 176 179 190 185 195 204 230 261 284 302 308 309 313 317 317 317 321 327 324 319 316 314 311 307 301
221 252 231 234 243 220 261 294 305 213 182 190 205 115 95 97 103 120 143 156 158 153 155 169 179 183 177 185 195 214 237 265 289 299 305 313 313 315 318 322 329 330 328 325 321 319 314 308 302
207 263 227 228 205 223 242 266 246 258 218 146 216 266 86 112 142 139 148 160 162 159 156 167 180 177 181 189 204 222 251 275 286 298 307 310 314 318 316 321 325 334 336 334 328 316 311 307 305
256 218 232 282 239 238 229 75 221 274 237 234 23 292 79 144 126 144 153 162 165 163 163 166 168 175 189 202 214 231 248 267 287 304 315 317 317 314 315 315 320 327 334 329 326 318 312 304 298
275 255 219 221 271 245 131 181 237 241 234 18 316 190 131 111 141 147 161 165 170 170 172 174 171 170 177 200 213 228 251 280 294 311 314 317 321 329 331 331 315 314 320 318 314 309 307 304 297
254 238 224 217 213 209 129 217 145 358 268 195 208 244 114 133 151 160 170 177 179 182 181 182 180 177 181 184 213 236 261 282 307 320 321 337 324 320 325 313 310 317 318 314 314 307 303 299 296
221 233 250 290 260 275 157 259 193 235 227 241 231 204 171 158 183 190 191 195 194 192 192 188 186 183 181 191 213 214 240 270 292 311 314 323 321 321 332 330 329 337 334 333 323 311 317 320 305
193 237 261 262 281 311 303 265 243 269 259 243 241 264 177 200 208 215 218 216 207 203 198 195 190 187 187 192 204 223 254 285 304 319 320 322 328 330 334 330 328 325 329 333 333 332 323 308 302
248 231 256 333 345 319 279 327 263 255 259 304 290 300 230 222 226 227 230 227 212 206 201 195 193 189 191 192 207 234 263 294 313 315 318 325 332 332 336 338 328 327 335 337 337 330 327 338 320
229 237 244 255 272 277 300 270 281 275 267 274 262 246 257 259 251 240 236 236 217 211 204 195 192 190 191 191 204 225 280 314 314 320 317 327 326 330 333 334 331 332 338 340 337 337 335 349 3
335 255 255 235 239 231 265 278 33 261 191 269 268 261 256 259 258 247 227 230 218 212 206 195 192 189 187 188 201 218 299 319 322 319 316 322 326 325 327 327 333 337 343 340 332 358 11 3 354
273 268 223 222 231 240 279 263 226 255 228 280 290 256 265 253 243 242 235 223 223 215 202 193 186 185 178 180 187 237 316 338 323 317 320 322 324 318 322 325 337 343 341 340 351 9 360 349 12
227 240 240 97 173 163 237 259 124 76 165 345 318 296 247 247 294 283 275 257 236 207 197 183 176 173 168 168 170 221 332 343 329 321 321 323 324 321 335 337 360 348 340 4 16 21 25 354 11
202 266 214 150 165 222 222 275 78 79 320 323 323 329 341 349 15 10 347 305 250 206 184 172 164 162 158 158 157 164 347 11 345 329 325 325 333 336 9 32 15 353 38 48 46 36 10 17 24
208 229 243 234 92 226 260 268 294 318 317 328 11 20 27 33 24 8 358 344 217 179 169 159 155 152 150 145 140 117 14 13 356 347 332 337 340 10 37 28 16 18 35 57 54 51 35 40 50
107 230 253 44 53 312 272 285 299 315 41 41 40 31 29 22 17 22 24 31 94 132 146 147 145 142 138 134 129 56 345 356 351 356 352 4 7 35 25 22 43 66 48 42 68 72 42 10 339
213 160 189 169 171 302 300 292 360 102 78 53 35 32 22 16 18 26 36 46 77 108 123 129 132 134 124 113 96 60 45 19 25 8 352 13 35 19 25 22 46 60 39 44 105 58 12 6 10
231 234 236 292 326 243 286 252 156 136 76 53 42 31 22 17 14 23 39 58 77 91 103 109 110 105 94 99 94 67 24 9 7 5 9 314 98 55 21 30 62 60 30 37 128 56 17 352 6
220 217 235 239 261 260 314 267 206 159 105 43 30 25 17 15 20 25 40 56 68 79 89 94 89 82 68 51 28 28 4 349 2 6 347 291 221 127 14 68 136 5 46 38 301 319 336 350 9
193 153 197 212 224 288 206 251 132 157 180 20 19 19 17 17 23 33 43 61 64 66 68 72 70 58 45 30 31 14 16 6 356 347 324 274 251 234 23 38 199 196 241 245 269 305 328 331 13
137 126 121 167 218 244 187 241 147 46 355 355 14 19 20 20 26 42 53 58 58 54 53 50 48 43 32 26 19 17 7 357 348 348 335 304 265 264 292 302 300 228 270 239 237 281 292 315 338
190 177 138 194 201 234 131 213 57 82 37 21 12 21 23 29 30 32 40 45 45 43 40 41 38 34 24 22 14 10 360 355 345 343 335 326 303 282 288 266 276 261 261 260 230 244 275 288 299
198 216 224 211 194 158 142 220 111 89 66 55 47 38 33 33 33 36 36 36 38 35 33 33 27 29 23 18 9 5 356 348 341 334 326 320 314 307 301 279 283 283 261 252 248 237 250 257 258
172 222 21 108 98 269 177 112 132 131 76 55 48 43 37 34 32 31 34 33 31 31 27 24 25 20 20 12 8 2 354 346 334 330 320 307 307 300 300 292 287 276 261 255 252 248 255 254 261
277 147 173 230 193 215 176 232 80 195 55 52 44 39 36 37 39 35 33 30 31 30 26 25 22 15 13 9 3 356 349 343 333 324 318 311 298 294 297 293 293 287 272 254 258 261 263 258 262
165 188 226 253 291 249 196 131 16 97 77 67 50 41 36 36 33 36 38 35 31 33 30 26 22 15 14 9 3 359 352 351 342 332 320 316 306 306 296 292 290 288 269 270 259 262 266 262 259
301 238 204 221 189 249 1 126 93 100 88 84 75 54 42 39 41 35 31 34 36 32 29 28 23 20 17 13 15 15 9 4 358 348 338 328 319 311 307 295 291 285 280 274 270 267 258 259 264